This demonstration page uses our WeatherBlox Daily Observations layout. Learn more.

Left ArrowRight Arrow

41.12389, -100.76542

Hourly Observations for March 24, 2015

Temp ( °F °C ) Dew Point ( °F °C ) Humidity (%) Winds ( mph kmh ) Pressure ( in mb ) Visibility ( mi km ) Precip ( " mm )
12:53 am 00:53 Clear 38 3.3 29 -1.7 70 70 ESE 9 15 29.96 1014 10 16 0.00 0.00
1:53 am 01:53 Cloudy 39 3.9 30 -1.1 70 70 ESE 9 15 29.93 1014 10 16 0.00 0.03
2:53 am 02:53 Cloudy with Light Rain 39 3.9 32 0 76 76 SE 23 37 29.82 1010 10 16 0.00 0.03
3:53 am 03:53 Clear 39 3.9 32 0 76 76 Calm 29.85 1011 10 16 0.00 0.03
4:53 am 04:53 Clear 35 1.7 31 -0.6 85 85 ESE 7 11 29.82 1010 10 16 0.00 0.00
5:53 am 05:53 Clear 32 0 29 -1.7 88 88 N 3 6 29.87 1011 10 16 0.00 0.00
6:53 am 06:53 Clear 30 -1.1 28 -2.2 92 92 Calm 29.89 1012 10 16 0.00 0.00
7:53 am 07:53 Mostly Sunny 33 0.6 30 -1.1 89 89 Calm 29.90 1013 9 14 0.00 0.00
8:53 am 08:53 Sunny 34 1.1 32 0 92 92 ESE 5 7 29.92 1013 9 14 0.00 0.00
9:53 am 09:53 Sunny 45 7.2 36 2.2 71 71 VRB 6 9 29.89 1012 10 16 0.00 0.00
10:53 am 10:53 Sunny 48 8.9 34 1.1 58 58 W 12 19 29.90 1013 10 16 0.00 0.00
11:53 am 11:53 Sunny 51 10.6 34 1.1 52 52 WNW 10 17 29.88 1012 10 16 0.00 0.00
12:53 pm 12:53 Sunny 57 13.9 35 1.7 44 44 WNW 8 13 29.84 1011 10 16 0.00 0.00
1:53 pm 13:53 Sunny 63 17.2 29 -1.7 28 28 NNW 17 28 29.81 1010 10 16 0.00 0.00
2:53 pm 14:53 Mostly Sunny 65 18.3 26 -3.3 23 23 NW 15 24 29.78 1009 10 16 0.00 0.00
3:53 pm 15:53 Mostly Sunny 65 18.3 26 -3.3 23 23 NW 15 24 29.80 1009 10 16 0.00 0.00
4:53 pm 16:53 Mostly Sunny 65 18.3 25 -3.9 22 22 WNW 13 20 29.80 1009 10 16 0.00 0.00
5:53 pm 17:53 Partly Cloudy 61 16.1 27 -2.8 27 27 W 14 22 29.81 1010 10 16 0.00 0.00
6:53 pm 18:53 Sunny 61 16.1 21 -6.1 21 21 WNW 18 30 29.81 1010 10 16 0.00 0.00
7:53 pm 19:53 Sunny 53 11.7 21 -6.1 28 28 W 7 11 29.83 1010 10 16 0.00 0.00
8:53 pm 20:53 Clear 48 8.9 22 -5.6 36 36 WSW 9 15 29.86 1011 10 16 0.00 0.00
9:53 pm 21:53 Clear 44 6.7 24 -4.4 45 45 NNW 3 6 29.86 1011 10 16 0.00 0.00
10:53 pm 22:53 Cloudy 50 10 24 -4.4 36 36 W 9 15 29.87 1012 10 16 0.00 0.00
11:53 pm 23:53 Cloudy 51 10.6 25 -3.9 36 36 W 8 13 29.87 1012 10 16 0.00 0.00

Powered by AerisWeather